815  
ASUS41 KALY 040510  
RWRALY  
 
NEW YORK STATE HOURLY WEATHER ROUNDUP  
NATIONAL WEATHER SERVICE ALBANY NY  
100 AM EDT THU JUN 04 2020  
 
NOTE: "FAIR" INDICATES FEW OR NO CLOUDS BELOW 12,000 FEET WITH NO  
SIGNIFICANT WEATHER AND/OR NO S TO VISIBILITY
.  
 
NYZ032-033-038>043-046>054-057>066-NYZ062>081-082-084-040600-  
EAST  
 
 
CITY SKY/WX TMP DP RH WIND PRES REMARKS
 
ALBANY PTCLDY 66 59 78 SW8 29.70R  
GLENS FALLS CLEAR 56 54 93 CALM 29.69R FOG  
POUGHKEEPSIE PTCLDY 63 61 93 SE3 29.71R  
NEWBURGH PTCLDY 63 63 100 CALM 29.74R  
MONTGOMERY PTCLDY 61 61 100 S3 29.74R  
WHITE PLAINS CLEAR 64 62 93 W6 29.73R  
NEW YORK CITY MOCLDY 72 66 81 W3 29.73R  
CENTRAL PARK MOCLDY 67 65 93 MISG 29.76R  

 
 
NYZ005>009-017-018-044>046-055-056-040600-  
CENTRAL  
 
 
CITY SKY/WX TMP DP RH WIND PRES REMARKS
 
FULTON CLEAR 58 55 90 W3 29.74R  
SYRACUSE PTCLDY 61 57 87 NW5 29.74R  
ROME CLEAR 58 56 93 CALM 29.74R  
ELMIRA CLEAR 63 62 97 W5 29.78R  
BINGHAMTON PTCLDY 62 60 93 W6 29.79R  
MONTICELLO PTCLDY 60 59 96 W5 29.80R  

 
 
NYZ026>034-041>043-087-040600-  
NORTH  
 
 
CITY SKY/WX TMP DP RH WIND PRES REMARKS
 
WATERTOWN FOG 52 51 97 CALM 29.72R VSB<1/4  
FORT DRUM NOT AVBL  
OGDENSBURG FOG 59 59 100 CALM 29.68S VSB<1/4  
MASSENA FOG 52 51 97 SW3 29.69F VSB 1/2  
SARANAC LAKE PTCLDY 55 53 93 SW5 29.71R  
PLATTSBURGH PTCLDY 53 52 96 CALM 29.67R FOG  

 
 
NYZ001>004-010>016-019>021-085-040600-  
WEST  
 
 
CITY SKY/WX TMP DP RH WIND PRES REMARKS
 
NIAGARA FALLS CLEAR 56 54 93 S6 29.76S  
BUFFALO CLEAR 57 55 93 SW8 29.78R  
DUNKIRK CLEAR 60 55 83 SW5 29.79S  
JAMESTOWN CLEAR 60 57 89 SW7 29.84S  
WELLSVILLE CLEAR 62 58 86 W7 29.85R  
ROCHESTER PTCLDY 62 60 93 W6 29.77R  
PENN YAN CLEAR 64 60 87 S6 29.78R  

 
 
KEY  
WCI = WIND CHILL INDEX  
VSB = VISIBILITY  
HX = HEAT INDEX  

 
 
 
CLICK HERE TO GO TO PREVIOUS BULLETINS.

The Nexlab NY Page
The Nexlab VT Page
The Nexlab MA Page
The Nexlab CT Page Main Text Page